Location: Kershaw
(34.5481°N, 80.5823°W)
Time: 23:34:53
(UTC+00:00)

Transit 4A - Pass Details

Date: 08 October 2022
Orbit: 871 x 972 km, 66.8° (Epoch: 09 December)

Event Time Altitude Azimuth Distance (km) Brightness Sun altitude
Rises 09:44:05 0° 350° (N) 3,481 10.9 -21.0°
Reaches altitude 10° 09:47:54 10° 15° (NNE) 2,529 10.4 -20.2°
Maximum altitude 09:50:58 14° 47° (NE) 2,221 10.6 -19.6°
Drops below altitude 10° 09:54:02 10° 79° (E) 2,518 11.4 -19.0°
Sets 09:57:47 0° 103° (ESE) 3,455 12.2 -18.2°
